This demonstration page uses our WeatherBlox Daily Observations layout. Learn more.

41.55636, -103.73856

Hourly Observations for January 15, 2020

Temp ( °F °C ) Dew Point ( °F °C ) Humidity (%) Winds ( mph kmh ) Pressure ( in mb ) Visibility ( mi km ) Precip ( " mm )
12:58 am 00:58 Clear 34 1.3 19 -7.5 52 52 WNW 12 19 29.88 1012 10 16.0934 0 0
1:58 am 01:58 Mostly Clear 36 2 15 -9.6 42 42 NW 17 28 29.85 1011 10 16.0934 0 0
2:58 am 02:58 Clear 33 0.6 17 -8.5 51 51 NW 16 26 29.88 1012 10 16.0934 0 0
3:58 am 03:58 Partly Cloudy 35 1.6 22 -5.3 61 61 WNW 24 39 29.92 1013 10 16.0934 0 0
4:58 am 04:58 Mostly Cloudy 33 0.8 18 -7.7 53 53 WNW 26 43 29.93 1014 10 16.0934 0 0
5:58 am 05:58 Mostly Cloudy 33 0.6 15 -9.2 48 48 W 28 44 29.94 1014 10 16.0934 0 0
6:58 am 06:58 Mostly Cloudy 33 0.4 15 -9.5 48 48 W 25 41 29.96 1014 10 16.0934 0 0
7:58 am 07:58 Mostly Cloudy 32 0.1 15 -9.5 49 49 WNW 26 43 29.98 1015 10 16.0934 0 0
8:58 am 08:58 Mostly Clear 30 -0.9 13 -10.4 49 49 W 20 31 30.01 1016 10 16.0934 0 0
9:58 am 09:58 Clear 28 -2.1 12 -11 51 51 WNW 16 26 30.06 1018 10 16.0934 0 0
10:58 am 10:58 Clear 27 -2.6 10 -12.4 47 47 WNW 21 33 30.09 1019 10 16.0934 0 0
11:58 am 11:58 Clear 25 -3.8 10 -12.2 53 53 W 14 22 30.12 1020 10 16.0934 0 0
12:58 pm 12:58 Clear 20 -6.4 10 -12.4 63 63 WSW 13 20 30.16 1021 10 16.0934 0 0
1:58 pm 13:58 Clear 24 -4.5 9 -12.9 52 52 W 14 22 30.16 1022 10 16.0934 0 0
2:58 pm 14:58 Sunny 27 -2.7 7 -13.8 43 43 W 17 28 30.19 1022 10 16.0934 0 0
3:58 pm 15:58 Sunny 30 -1 7 -13.8 38 38 WNW 18 30 30.19 1023 10 16.0934 0 0
4:58 pm 16:58 Sunny 33 0.4 7 -13.8 34 34 NW 17 28 30.24 1024 10 16.0934 0 0
5:58 pm 17:58 Sunny 37 2.5 9 -13 31 31 NW 23 37 30.23 1024 10 16.0934 0 0
6:58 pm 18:58 Sunny 38 3.3 8 -13.5 28 28 NW 28 44 30.23 1024 10 16.0934 0 0
7:58 pm 19:58 Sunny 39 3.9 7 -14 26 26 NW 28 44 30.23 1024 10 16.0934 0 0
8:58 pm 20:58 Sunny 39 4 7 -13.8 26 26 NW 26 43 30.26 1025 10 16.0934 0 0
9:58 pm 21:58 Sunny 39 3.9 6 -14.7 25 25 NNW 26 43 30.29 1026 10 16.0934 0 0
10:58 pm 22:58 Sunny 37 3 6 -14.7 26 26 NW 16 26 30.35 1028 10 16.0934 0 0
11:58 pm 23:58 Mostly Clear 30 -1.1 8 -13.1 40 40 NE 6 9 30.41 1030 10 16.0934 0 0

Powered by AerisWeather